Location: Antichan
(42.9728°N, 0.6667°E)
Time: 18:27:10
(UTC+00:00)

ATLAS 3B R/B - Pass Details

Date: 15 August 2020
Orbit: 1016 x 1179 km, 63.8° (Epoch: 17 September)

Event Time Altitude Azimuth Distance (km) Brightness Sun altitude
Rises 20:21:43 0° 182° (S) 3,753 5.2 -14.3°
Reaches altitude 10° 20:24:36 10° 172° (S) 2,796 4.5 -14.7°
Maximum altitude 20:30:14 31° 112° (ESE) 1,686 3.2 -15.5°
Drops below altitude 10° 20:35:54 10° 53° (NE) 2,817 4.8 -16.4°
Sets 20:38:48 0° 44° (NE) 3,785 5.5 -16.8°
